Location: East Arcadia
(34.1056°N, 118.0176°W)
Time: 01:00:22
(UTC+00:00)

ATLAS 2AS CENTAUR R/B - Pass Details

Date: 01 April 2023
Orbit: 989 x 1222 km, 63.7° (Epoch: 06 May)

Event Time Altitude Azimuth Distance (km) Brightness Sun altitude
Rises 12:29:07 0° 336° (NNW) 3,925 5.6 -15.1°
Reaches altitude 10° 12:32:07 10° 345° (NNW) 2,927 5.0 -14.5°
Maximum altitude 12:38:23 36° 50° (NE) 1,590 4.3 -13.3°
Drops below altitude 10° 12:44:21 10° 116° (ESE) 2,786 5.7 -12.1°
Sets 12:47:07 0° 125° (SE) 3,714 6.2 -11.5°
